Torna al catalogo

STARLINK-32210

AttivoComunicazioniVLEO
NORAD 60594·PAYLOAD·🇺🇸 United States

Lanciato Aug 20, 2024 da Cape Canaveral Space Force Station

Loading…

Prossimi Passaggi (prossime 24 ore)

TLE

AggiornatoSource: CelesTrak SupGP

Epoca: Sep 15, 2026, 02:07 UTC

1 60594C 24150M   26258.08868056 -.00083042  00000+0 -24548-2 0  2581
2 60594  53.1575 143.3522 0001255  93.9567 303.9281 15.34415243    13

Traccia STARLINK-32210 in tempo reale con AllMySat

Download on the App Store